OK2BOZ-1 Weather Reports


time (UTC)temp
F
wind
direction
speed
knots
gust
knots
rain 1hr
in
rain 24hr
in
rain mn
in
humidity
%
barometer
mb
20260507084021 71 294 0.0 0.9 0.00 0.00 0.00 55 1010.4
20260507083506 70 276 0.0 0.9 0.00 0.00 0.00 56 1010.4
20260507082951 70 288 0.0 0.9 0.00 0.00 0.00 55 1010.4
20260507082437 70 255 0.0 0.9 0.00 0.00 0.00 56 1010.3
20260507081921 69 280 0.0 0.9 0.00 0.00 0.00 56 1010.4
20260507081406 69 273 0.0 0.9 0.00 0.00 0.00 57 1010.4
20260507080851 69 282 0.9 0.9 0.00 0.00 0.00 58 1010.3
20260507080335 69 256 0.0 0.9 0.00 0.00 0.00 59 1010.2
20260507075820 68 230 0.9 1.7 0.00 0.00 0.00 58 1010.2
20260507075307 69 226 0.9 1.7 0.00 0.00 0.00 57 1010.2
20260507074751 68 197 0.9 1.7 0.00 0.00 0.00 58 1010.1
20260507074237 68 264 0.9 0.9 0.00 0.00 0.00 58 1010.2
20260507073721 69 185 0.9 1.7 0.00 0.00 0.00 57 1010.1
20260507073206 69 250 0.9 1.7 0.00 0.00 0.00 58 1010.1
20260507072651 69 249 0.9 1.7 0.00 0.00 0.00 56 1010.0
20260507071620 71 254 0.0 0.9 0.00 0.00 0.00 56 1009.9
20260507071105 70 228 0.9 1.7 0.00 0.00 0.00 57 1009.9
20260507070550 70 297 0.9 0.9 0.00 0.00 0.00 56 1009.9
20260507070034 71 272 0.9 0.9 0.00 0.00 0.00 56 1009.8
20260507065519 70 198 0.9 1.7 0.00 0.00 0.00 59 1009.7
20260507065004 68 284 0.9 1.7 0.00 0.00 0.00 63 1009.7
20260507064450 68 235 0.9 0.9 0.00 0.00 0.00 63 1009.7
20260507063936 66 231 0.9 2.6 0.00 0.00 0.00 66 1009.7
20260507063420 66 253 0.9 0.9 0.00 0.00 0.00 67 1009.7
20260507062905 66 249 0.0 0.9 0.00 0.00 0.00 67 1009.5
20260507062350 65 218 0.0 0.9 0.00 0.00 0.00 69 1009.6
20260507061837 66 282 0.0 0.9 0.00 0.00 0.00 71 1009.5
20260507061321 65 254 0.0 0.9 0.00 0.00 0.00 73 1009.3
20260507060806 64 276 0.0 0.9 0.00 0.00 0.00 77 1009.2
20260507060252 63 243 0.0 0.9 0.00 0.00 0.00 78 1009.2
20260507055736 63 229 0.0 0.9 0.00 0.00 0.00 80 1009.1
20260507055222 63 207 0.9 1.7 0.00 0.00 0.00 80 1009.1
20260507054707 63 247 0.0 0.9 0.00 0.00 0.00 82 1009.1
20260507054153 62 271 0.0 0.9 0.00 0.00 0.00 90 1009.0
20260507053638 61 277 0.0 0.0 0.00 0.00 0.00 94 1008.9
20260507053124 60 270 0.0 0.0 0.00 0.00 0.00 10 1008.9